Location: Sternwarte ZA, Rosenfeld-Brittheim
(48.2889°N, 8.6789°E)
Time: 07:22:56
(UTC+02:00)

ISS - Visible Passes

Search period start: 29 March 2017 00:00
Search period end: 08 April 2017 00:00
Orbit: 399 x 409 km, 51.6° (Epoch: 29 March)

Date Brightness Start Highest point End Pass type
(mag) Time Alt. Az. Time Alt. Az. Time Alt. Az.
29 Mar -4.0 21:41:47 10° WSW 21:45:01 75° SSE 21:45:05 75° SE visible
30 Mar -3.5 20:49:34 10° SW 20:52:42 47° SSE 20:55:20 14° ENE visible
30 Mar -2.1 22:25:58 10° W 22:28:00 32° WNW 22:28:00 32° WNW visible
31 Mar -3.6 21:33:28 10° WSW 21:36:43 68° NNW 21:38:02 32° ENE visible
31 Mar -0.6 23:10:19 10° WNW 23:10:43 13° WNW 23:10:43 13° WNW visible
01 Apr -3.9 20:41:02 10° WSW 20:44:18 85° SSE 20:47:35 10° ENE visible
01 Apr -2.7 22:17:47 10° WNW 22:20:37 42° NNW 22:20:37 42° NNW visible
02 Apr -3.1 21:25:15 10° W 21:28:27 50° N 21:30:24 21° ENE visible
02 Apr -1.0 23:02:02 10° WNW 23:03:04 18° WNW 23:03:04 18° WNW visible
03 Apr -3.4 20:32:42 10° W 20:35:56 62° NNW 20:39:12 10° ENE visible
03 Apr -3.0 22:09:33 10° WNW 22:12:43 45° N 22:12:46 45° N visible
04 Apr -2.9 21:17:00 10° WNW 21:20:09 44° N 21:22:25 17° ENE visible
04 Apr -1.5 22:53:37 10° WNW 22:55:04 24° WNW 22:55:04 24° WNW visible
05 Apr -3.4 22:01:09 10° WNW 22:04:23 54° NNE 22:04:40 52° NE visible
06 Apr -3.1 21:08:39 10° WNW 21:11:50 46° N 21:14:15 15° ENE visible
06 Apr -1.9 22:45:10 10° WNW 22:46:54 28° WNW 22:46:54 28° WNW visible
07 Apr -3.9 21:52:40 10° WNW 21:55:57 79° NNE 21:56:28 59° E visible
